Weather History for KMBG - September, 2014

Change the Weather History Date:

Saturday, September 27, 2014

  Actual Average Record
Temperature  
Mean Temperature 77 °F 55 °F  
Max Temperature 89 °F 69 °F 101 °F (1952)
Min Temperature 64 °F 42 °F 17 °F (1928)
Degree Days  
Heating Degree Days 0 10  
Month to date heating degree days 140 155  
Since 1 July heating degree days 187 188  
Cooling Degree Days 12 0  
Month to date cooling degree days 63 60  
Year to date cooling degree days 466 641  
Growing Degree Days 26 (Base 50)    
Moisture  
Dew Point 56 °F    
Average Humidity 54    
Maximum Humidity 73    
Minimum Humidity 34    
Precipitation  
Precipitation 0.00 in 0.05 in 0.43 in (1929)
Month to date precipitation 0.56 1.39  
Year to date precipitation 19.88 15.30  
Sea Level Pressure  
Sea Level Pressure 29.84 in    
Wind  
Wind Speed 10 mph (SE)    
Max Wind Speed 17 mph    
Max Gust Speed 20 mph    
Visibility 10 miles    
Events      
T = Trace of Precipitation, MM = Missing Value Source: NWS Daily Summary

Daily Weather History Graph

Daily Weather History Graph

Search for Another Location

Airport or City:

Trip Planner

Search our weather history database for the weather conditions in past years. The results will help you decide how hot, cold, wet, or windy it might be!

Date:

Astronomy

Sep. 27, 2014 Rise Set
Actual Time 7:34 AM CDT 7:29 PM CDT
Civil Twilight 7:05 AM CDT 7:58 PM CDT
Nautical Twilight 6:30 AM CDT 8:33 PM CDT
Astronomical Twilight 5:55 AM CDT 9:08 PM CDT
Moon 11:01 AM CDT (9/27) 9:19 PM CDT (9/27)
Length of Visible Light 12h 53m
Length of Day
11h 54m
Waxing Crescent, 11% of the Moon is Illuminated
Sep 27
Waxing Crescent
Oct 1
First Quarter
Oct 8
Full
Oct 15
Last Quarter
Oct 23
New

Hourly Weather History & Observations

Time (CDT) Temp. Heat Index Dew Point Humidity Pressure Visibility Wind Dir Wind Speed Gust Speed Precip Events Conditions
12:52 AM 71.1 °F - 59.0 °F 66% 29.81 in 10.0 mi SE 9.2 mph - N/A   Clear
1:52 AM 70.0 °F - 57.9 °F 65% 29.85 in 10.0 mi SSE 11.5 mph - N/A   Clear
2:52 AM 68.0 °F - 57.0 °F 68% 29.82 in 10.0 mi SSE 12.7 mph - N/A   Clear
3:52 AM 66.9 °F - 57.0 °F 70% 29.85 in 10.0 mi SSE 13.8 mph - N/A   Clear
4:52 AM 66.0 °F - 57.0 °F 73% 29.81 in 10.0 mi SSE 10.4 mph - N/A   Clear
5:52 AM 64.9 °F - 55.9 °F 73% 29.81 in 10.0 mi SSE 11.5 mph - N/A   Clear
6:52 AM 64.9 °F - 55.9 °F 73% 29.81 in 10.0 mi SSE 13.8 mph - N/A   Clear
7:52 AM 64.0 °F - 54.0 °F 70% 29.83 in 10.0 mi SSE 13.8 mph - N/A   Clear
8:52 AM 66.0 °F - 53.1 °F 63% 29.85 in 10.0 mi SE 10.4 mph - N/A   Clear
9:52 AM 69.1 °F - 54.0 °F 58% 29.86 in 10.0 mi SSE 8.1 mph - N/A   Clear
10:52 AM 73.0 °F - 54.0 °F 51% 29.86 in 10.0 mi SE 15.0 mph - N/A   Clear
11:52 AM 75.9 °F - 53.1 °F 45% 29.86 in 10.0 mi SSE 13.8 mph - N/A   Clear
12:52 PM 80.1 °F 80.1 °F 55.0 °F 42% 29.85 in 10.0 mi South 9.2 mph - N/A   Clear
1:52 PM 84.0 °F 83.0 °F 55.9 °F 38% 29.84 in 10.0 mi SSE 9.2 mph - N/A   Clear
2:52 PM 86.0 °F 84.7 °F 55.9 °F 36% 29.83 in 10.0 mi SSE 11.5 mph - N/A   Clear
3:31 PM 87.1 °F 85.3 °F 55.0 °F 33% 29.85 in 10.0 mi SSE 13.8 mph - N/A   Partly Cloudy
3:52 PM 88.0 °F 86.5 °F 55.9 °F 34% 29.81 in 10.0 mi SSE 12.7 mph - N/A   Partly Cloudy
4:52 PM 89.1 °F 87.7 °F 57.0 °F 34% 29.80 in 10.0 mi SSE 11.5 mph - N/A   Clear
5:52 PM 88.0 °F 86.7 °F 57.0 °F 35% 29.81 in 10.0 mi SSE 8.1 mph - N/A   Clear
6:52 PM 84.9 °F 84.2 °F 57.9 °F 40% 29.82 in 10.0 mi East 5.8 mph - N/A   Clear
7:52 PM 79.0 °F - 57.9 °F 48% 29.84 in 10.0 mi ENE 8.1 mph - N/A   Clear
8:52 PM 75.9 °F - 57.0 °F 52% 29.87 in 10.0 mi ESE 8.1 mph - N/A   Clear
9:52 PM 70.0 °F - 57.0 °F 63% 29.88 in 10.0 mi SE 8.1 mph - N/A   Clear
10:52 PM 70.0 °F - 57.9 °F 65% 29.90 in 10.0 mi SE 8.1 mph - N/A   Clear
11:52 PM 66.9 °F - 57.9 °F 73% 29.91 in 10.0 mi SE 5.8 mph - N/A   Clear